Gainesville, FL

10:46 AM EST on December 08, 2019 (GMT -0500)
Gainesville Regional

Weather History for KGNV - October, 2019

Change the Weather History Date:

Monday, October 14, 2019

  Actual Average Record
Temperature  
Mean Temperature 76 °F 72 °F  
Max Temperature 88 °F 82 °F 94 °F (1912)
Min Temperature 63 °F 61 °F 39 °F (1977)
Degree Days  
Heating Degree Days 0 1  
Month to date heating degree days 0 2  
Since 1 July heating degree days 0 2  
Cooling Degree Days 11 7  
Month to date cooling degree days 168 122  
Year to date cooling degree days 3184 2462  
Growing Degree Days 26 (Base 50)    
Moisture  
Dew Point 65 °F    
Average Humidity 68    
Maximum Humidity 93    
Minimum Humidity 43    
Precipitation  
Precipitation 0.00 in 0.10 in 1.36 in (1995)
Month to date precipitation 1.86 1.60  
Year to date precipitation 40.10 41.59  
Snow  
Snow 0.00 in 0.00 in 0.00 in ()
Month to date snowfall 0.0 0.0  
Since 1 July snowfall 0.0 0.0  
Since 1 September snowfall 0.0 0.0  
Snow Depth 0.00 in    
Sea Level Pressure  
Sea Level Pressure 30.07 in    
Wind  
Wind Speed 2 mph (SE)    
Max Wind Speed 9 mph    
Max Gust Speed 12 mph    
Visibility 10 miles    
Events      
T = Trace of Precipitation, MM = Missing Value Source: NWS Daily Summary

Daily Weather History Graph

Daily Weather History Graph

Search for Another Location

Airport or City:

Astronomy

Oct. 14, 2019 Rise Set
Actual Time 7:29 AM EDT 6:59 PM EDT
Civil Twilight 7:05 AM EDT 7:23 PM EDT
Nautical Twilight 6:38 AM EDT 7:51 PM EDT
Astronomical Twilight 6:10 AM EDT 8:19 PM EDT
Moon 7:50 PM EDT (10/14) 8:01 AM EDT (10/14)
Length of Visible Light 12h 17m
Length of Day
11h 29m
Waxing Gibbous, 99% of the Moon is Illuminated
Oct 14
Waxing Gibbous
Oct 21
Last Quarter
Oct 27
New
Nov 4
First Quarter
Nov 12
Full

Hourly Weather History & Observations

Time (EDT) Temp. Heat Index Dew Point Humidity Pressure Visibility Wind Dir Wind Speed Gust Speed Precip Events Conditions
12:53 AM 66.0 °F - 63.0 °F 90% 30.08 in 10.0 mi Calm Calm - N/A   Clear
1:53 AM 68.0 °F - 64.0 °F 87% 30.08 in 10.0 mi Calm Calm - N/A   Clear
2:53 AM 66.0 °F - 64.0 °F 93% 30.06 in 10.0 mi Calm Calm - N/A   Clear
3:53 AM 66.9 °F - 64.0 °F 90% 30.05 in 10.0 mi Calm Calm - N/A   Clear
4:53 AM 64.9 °F - 63.0 °F 93% 30.06 in 10.0 mi Calm Calm - N/A   Clear
5:53 AM 64.9 °F - 63.0 °F 93% 30.07 in 10.0 mi Calm Calm - N/A   Clear
6:53 AM 64.0 °F - 62.1 °F 93% 30.09 in 10.0 mi Calm Calm - N/A   Clear
7:53 AM 64.0 °F - 62.1 °F 93% 30.09 in 10.0 mi Calm Calm - N/A   Clear
8:53 AM 70.0 °F - 66.9 °F 90% 30.11 in 10.0 mi NNW 3.5 mph - N/A   Clear
9:53 AM 77.0 °F - 68.0 °F 74% 30.11 in 10.0 mi South 3.5 mph - N/A   Clear
10:53 AM 81.0 °F 84.1 °F 69.1 °F 67% 30.11 in 10.0 mi West 4.6 mph - N/A   Clear
11:53 AM 81.0 °F 83.3 °F 66.9 °F 62% 30.10 in 10.0 mi South 3.5 mph - N/A   Clear
12:53 PM 86.0 °F 88.8 °F 66.9 °F 53% 30.09 in 10.0 mi Calm Calm - N/A   Mostly Cloudy
1:53 PM 86.0 °F 88.2 °F 66.0 °F 51% 30.06 in 10.0 mi North - - N/A   Clear
2:53 PM 87.1 °F 87.8 °F 63.0 °F 44% 30.05 in 10.0 mi SE 3.5 mph - N/A   Clear
3:53 PM 86.0 °F 87.3 °F 64.0 °F 48% 30.03 in 10.0 mi ESE 4.6 mph - N/A   Mostly Cloudy
4:53 PM 87.1 °F 88.3 °F 64.0 °F 46% 30.03 in 10.0 mi Variable 4.6 mph - N/A   Clear
5:53 PM 86.0 °F 87.6 °F 64.9 °F 49% 30.03 in 10.0 mi ESE 5.8 mph - N/A   Clear
6:53 PM 81.0 °F 83.8 °F 68.0 °F 65% 30.04 in 10.0 mi SSE 3.5 mph - N/A   Partly Cloudy
7:53 PM 79.0 °F - 69.1 °F 72% 30.05 in 10.0 mi East 3.5 mph - N/A   Mostly Cloudy
8:53 PM 77.0 °F - 66.9 °F 71% 30.08 in 10.0 mi East 4.6 mph - N/A   Clear
9:53 PM 73.9 °F - 66.9 °F 79% 30.10 in 10.0 mi ESE 4.6 mph - N/A   Clear
10:53 PM 75.0 °F - 66.9 °F 76% 30.11 in 10.0 mi South 6.9 mph - N/A   Clear
11:53 PM 73.0 °F - 66.9 °F 81% 30.10 in 10.0 mi SSE 3.5 mph - N/A   Clear